FW1358 Weather Reports


time (UTC)temp
C
wind
direction
speed
KPH
gust
KPH
rain 1hr
cm
rain 24hr
cm
rain mn
cm
humidity
%
barometer
mb
20260506031803 21 23 0.0 1.6 0.00 0.00 0.00 62 1009.6
20260506031303 21 341 0.0 1.6 0.00 0.00 0.00 61 1009.7
20260506030302 21 334 0.0 1.6 0.00 0.00 0.00 61 1009.6
20260506025803 21 334 0.0 1.6 0.00 0.00 0.00 61 1009.7
20260506024802 21 328 0.0 1.6 0.00 0.00 0.00 61 1009.3
20260506023803 21 9 0.0 1.6 0.00 0.00 0.00 61 1009.4
20260506022803 22 161 0.0 8.0 0.00 0.00 0.00 60 1009.5
20260506021302 21 26 0.0 1.6 0.00 0.00 0.00 60 1009.7
20260506020802 21 24 0.0 0.0 0.00 0.00 0.00 59 1009.7
20260506020303 22 24 0.0 0.0 0.00 0.00 0.00 59 1009.6
20260506014803 22 42 0.0 0.0 0.00 0.00 0.00 59 1009.2
20260506014303 22 42 0.0 12.9 0.00 0.00 0.00 58 1009.3
20260506012803 22 266 0.0 1.6 0.00 0.00 0.00 58 1009.5
20260506005305 22 56 0.0 3.2 0.00 0.00 0.00 56 1009.4
20260506003802 22 120 0.0 1.6 0.00 0.00 0.00 56 1009.2
20260506002803 22 142 0.0 0.0 0.00 0.00 0.00 56 1009.1
20260506001303 22 142 0.0 1.6 0.00 0.00 0.00 56 1009.0
20260506000803 22 240 0.0 1.6 0.00 0.00 0.00 55 1009.1
20260506000303 22 240 0.0 1.6 0.00 0.00 0.00 56 1009.1
20260505235803 22 52 0.0 1.6 0.00 0.00 0.00 54 1009.2
20260505234803 22 85 0.0 1.6 0.00 0.00 0.00 54 1009.2
20260505234303 22 137 0.0 1.6 0.00 0.00 0.00 55 1009.2
20260505233303 22 346 0.0 11.3 0.00 0.00 0.00 53 1009.2
20260505232305 22 115 0.0 1.6 0.00 0.00 0.00 53 1009.6
20260505231803 22 115 0.0 1.6 0.00 0.00 0.00 53 1009.6
20260505231303 22 169 0.0 1.6 0.00 0.00 0.00 53 1009.7
20260505225803 22 239 0.0 0.0 0.00 0.00 0.00 52 1009.8
20260505224303 22 0 0.0 1.6 0.00 0.00 0.00 52 1009.7
20260505223302 22 136 0.0 4.8 0.00 0.00 0.00 51 1009.7
20260505215803 23 352 0.0 4.8 0.00 0.00 0.00 50 1011.0
20260505213803 23 325 0.0 4.8 0.00 0.00 0.00 48 1010.1
20260505213303 23 82 0.0 1.6 0.00 0.00 0.00 47 1009.7
20260505212803 23 82 0.0 1.6 0.00 0.00 0.00 47 1009.7
20260505211802 24 352 0.0 1.6 0.00 0.00 0.00 46 1009.7
20260505211303 24 343 0.0 1.6 0.00 0.00 0.00 45 1009.9
20260505210802 24 168 0.0 1.6 0.00 0.00 0.00 44 1009.9
20260505205803 24 55 0.0 8.0 0.00 0.00 0.00 45 1010.2
20260505204803 25 215 1.6 8.0 0.00 0.00 0.00 42 1009.9
20260505204303 25 0 0.0 8.0 0.00 0.00 0.00 43 1009.9
20260505202306 25 110 0.0 4.8 0.00 0.00 0.00 44 1010.0
20260505200803 25 5 0.0 1.6 0.00 0.00 0.00 47 1010.1
20260505200303 25 138 0.0 1.6 0.00 0.00 0.00 45 1010.2
20260505193802 23 122 0.0 3.2 0.00 0.00 0.00 51 1011.0
20260505193303 23 234 0.0 1.6 0.00 0.00 0.00 51 1011.1
20260505192803 23 234 0.0 1.6 0.00 0.00 0.00 51 1011.1
20260505191802 23 340 0.0 0.0 0.00 0.00 0.00 53 1011.4
20260505191303 22 340 0.0 1.6 0.00 0.00 0.00 55 1011.5
20260505185305 21 5 0.0 4.8 0.00 0.00 0.00 54 1011.4
20260505184803 21 119 0.0 4.8 0.00 0.00 0.00 56 1011.3
20260505184303 21 83 0.0 0.0 0.00 0.00 0.00 58 1011.3
20260505183303 21 83 0.0 3.2 0.00 0.00 0.00 58 1011.5
20260505182803 21 83 0.0 3.2 0.00 0.00 0.00 56 1011.7
20260505182305 21 340 0.0 4.8 0.00 0.00 0.00 56 1012.1
20260505181303 21 124 0.0 0.0 0.00 0.00 0.00 58 1012.2
20260505180302 21 124 0.0 1.6 0.00 0.00 0.00 57 1012.5
20260505175803 21 49 0.0 1.6 0.00 0.00 0.00 58 1012.4
20260505172803 21 25 0.0 1.6 0.00 0.00 0.00 58 1013.5
20260505172305 21 333 0.0 0.0 0.00 0.00 0.00 58 1013.5
20260505171803 21 333 0.0 0.0 0.00 0.00 0.00 56 1013.6
20260505165306 22 215 0.0 1.6 0.00 0.00 0.00 56 1013.8
20260505164303 22 27 0.0 4.8 0.00 0.00 0.00 56 1013.8
20260505162803 22 269 0.0 3.2 0.00 0.00 0.00 56 1014.0
20260505162305 22 254 0.0 4.8 0.00 0.00 0.00 57 1014.1
20260505161303 22 308 0.0 0.0 0.00 0.00 0.00 57 1014.2
20260505160802 22 308 0.0 0.0 0.00 0.00 0.00 57 1014.2
20260505151803 21 311 0.0 3.2 0.00 0.00 0.00 58 1013.8
20260505130303 17 275 0.0 1.6 0.00 0.00 0.00 66 1013.2
20260505124803 17 194 0.0 0.0 0.00 0.00 0.00 67 1013.3
20260505124303 16 194 0.0 0.0 0.00 0.00 0.00 68 1013.3
20260505123802 16 194 0.0 0.0 0.00 0.00 0.00 67 1013.5
20260505123303 16 194 0.0 0.0 0.00 0.00 0.00 67 1013.6
20260505122305 16 194 0.0 0.0 0.00 0.00 0.00 68 1013.6
20260505121802 16 194 0.0 0.0 0.00 0.00 0.00 67 1013.5
20260505121303 16 194 0.0 0.0 0.00 0.00 0.00 68 1013.5
20260505120803 16 194 0.0 0.0 0.00 0.00 0.00 68 1013.4
20260505120303 16 194 0.0 0.0 0.00 0.00 0.00 68 1013.2
20260505115803 16 194 0.0 0.0 0.00 0.00 0.00 68 1013.1
20260505115305 15 194 0.0 0.0 0.00 0.00 0.00 68 1013.0
20260505114302 15 194 0.0 0.0 0.00 0.00 0.00 68 1012.8
20260505112304 15 194 0.0 0.0 0.00 0.00 0.00 67 1012.5
20260505111303 15 194 0.0 0.0 0.00 0.00 0.00 67 1012.4
20260505110803 15 194 0.0 0.0 0.00 0.00 0.00 66 1012.5
20260505110303 15 194 0.0 0.0 0.00 0.00 0.00 67 1012.4
20260505101803 15 221 0.0 0.0 0.00 0.00 0.00 67 1011.9
20260505101303 15 221 0.0 0.0 0.00 0.00 0.00 67 1011.8
20260505095304 15 221 0.0 0.0 0.00 0.00 0.00 67 1011.8
20260505094303 15 221 0.0 0.0 0.00 0.00 0.00 66 1011.7
20260505092802 15 221 0.0 0.0 0.00 0.00 0.00 66 1011.8
20260505090803 16 221 0.0 0.0 0.00 0.00 0.00 66 1011.8
20260505085304 16 221 0.0 0.0 0.00 0.00 0.00 65 1011.8
20260505083803 16 221 0.0 0.0 0.00 0.00 0.00 65 1011.7
20260505083302 16 221 0.0 0.0 0.00 0.00 0.00 64 1011.6
20260505082304 16 221 0.0 0.0 0.00 0.00 0.00 64 1011.5
20260505080803 16 221 0.0 0.0 0.00 0.00 0.00 63 1011.4
20260505080303 16 221 0.0 0.0 0.00 0.00 0.00 63 1011.4
20260505073803 16 221 0.0 0.0 0.00 0.00 0.00 62 1011.5
20260505073303 16 221 0.0 0.0 0.00 0.00 0.00 62 1011.5
20260505072803 16 221 0.0 0.0 0.00 0.00 0.00 62 1011.7
20260505071303 17 221 0.0 0.0 0.00 0.00 0.00 61 1011.8
20260505070803 17 221 0.0 0.0 0.00 0.00 0.00 61 1011.9
20260505065304 17 221 0.0 0.0 0.00 0.00 0.00 60 1012.1
20260505061803 17 221 0.0 0.0 0.00 0.00 0.00 59 1012.3
20260505061302 17 221 0.0 0.0 0.00 0.00 0.00 59 1012.2
20260505055304 18 221 0.0 0.0 0.00 0.00 0.00 58 1012.4
20260505054803 18 221 0.0 0.0 0.00 0.00 0.00 58 1012.4
20260505054303 18 221 0.0 0.0 0.00 0.00 0.00 58 1012.4
20260505053803 18 221 0.0 0.0 0.00 0.00 0.00 57 1012.3
20260505052803 18 221 0.0 0.0 0.00 0.00 0.00 57 1012.2
20260505052304 18 221 0.0 0.0 0.00 0.00 0.00 57 1012.2
20260505051803 18 221 0.0 0.0 0.00 0.00 0.00 57 1012.2
20260505040803 19 221 0.0 0.0 0.00 0.00 0.00 54 1011.8
20260505035304 19 221 0.0 0.0 0.00 0.00 0.00 54 1011.8
20260505034803 19 221 0.0 0.0 0.00 0.00 0.00 54 1011.8
20260505032803 20 221 0.0 1.6 0.00 0.00 0.00 53 1011.8